User: anonymous
Location: Unspecified
(0.0000°N, 0.0000°E)
Time: 07:29:49
(UTC+02:00)
Language:

ARIANE 5 DEB (SYLDA) - Orbit

View from above orbital plane
View from above orbital plane
View from above satellite
View from above satellite

Ground track
Ground track

The orbit data is extracted from the following two-line orbital elements,

1 32770U 08018D   14259.89962887  .08868219 -16600-4  58406-2 0  8594
2 32770 001.4376 155.6492 1675008 238.1826 232.9558 12.50171548 78161
Epoch (UTC): 16 September 2014 21:35:27
Eccentricity: 0.1675008
inclination: 1.4376°
perigee height: 150 km
apogee height: 2777 km
right ascension of ascending node: 155.6492°
argument of perigee: 238.1826°
revolutions per day: 12.50171548
mean anomaly at epoch: 232.9558°
orbit number at epoch: 7816

The dashed part of the orbit path shows where the satellite is in the earth's shadow,  

DLR